GSAT-7A (43864 NORAD) Tracking and Keplerian Element Data

This shows tracking and keplerian element data for the satellite.

Feedback or suggestion? Click here.




ElementValue
Catalog43864
NameGSAT-7A
Epoch Orbit32
Epoch Day16.53591015
Epoch Year2019
RAAN291.3167
Inclination0.1413
Eccentricity0.0002458
Argument of Perigee358.2668
Mean Anonmoly81.7909
Mean Motion1.00273559
Decay Rate3.7E-07
L11 43864U 18105A 19016.53591015 .00000037 00000-0 00000+0 0 9995
L22 43864 0.1413 291.3167 0002458 358.2668 81.7909 1.00273559 323

Live tracking and technical data element details for GSAT-7A (NORAD 43864). GSAT-7A can be tracked NOW for your location showing map with azimuth and elevation plus other details from your city location.

Track the satellite on the map from your city or location and see movement details for azimuth, elevation, latitude, longitude, range, height, and movement on the map or in text.







IsCatalogInMostPopularTable: catalog: 43864, numindb: 22
Update: records affected: 1



GetName: 43864 GSAT-7A

Hit Count: updated at: Thu, 17 Jan 2019 15:17:22 GMT